NORTHEAST SUFFOLK  -  Special Weather Statement Special Weather Statement        NORTHERN NASSAU  -  Special Weather Statement Special Weather Statement        NORTHWEST SUFFOLK  -  Special Weather Statement Special Weather Statement        SOUTHEAST SUFFOLK  -  Special Weather Statement Special Weather Statement        SOUTHERN NASSAU  -  Special Weather Statement Special Weather Statement        SOUTHWEST SUFFOLK  -  Special Weather Statement Special Weather Statement      

Active alerts

Northern Nassau
  Details for Northern Nassau Special Weather Statement
Southern Nassau
  Details for Southern Nassau Special Weather Statement
Northwest Suffolk
  Details for Northwest Suffolk Special Weather Statement
Southwest Suffolk
  Details for Southwest Suffolk Special Weather Statement
Northeast Suffolk
  Details for Northeast Suffolk Special Weather Statement
Southeast Suffolk
  Details for Southeast Suffolk Special Weather Statement


WXM80 ListenWXM80 Stop

You find our weather info also at:

UK Metoffice

WeatherCloud

Weather Underground

Northeastern Weather Network

AWEKAS

Citizen Weather Observer Program (CWOP)

HAMweather, WeatherForYou, PWS Weather


Weather Underground History page Text

Daily Summary for December 15, 2017 Units:  Metric    English   Both
« Previous Day
Next Day »
Daily Weekly Monthly Yearly Custom
  High: Low: Average:
Temperature: -0.6 °C -7.3 °C -3.6 °C
Dew Point: -3.7 °C -11.6 °C -7 °C
Humidity: 92 % 61 % 78 %
Wind Speed: 12.1 km/h 0 km/h 2.4 km/h
Wind Gust: 22.2 km/h - -
Wind:- - WSW
Pressure: 1020.2 hPa 1005.3 hPa -
Precipitation: 2.54 mm    
Historical Graphs
 
 
Tabular Data for December 15, 2017
Time Temperature Dew Point Pressure Wind Wind Speed Wind Gust Humidity Rainfall Rate (Hourly)
00:03 -4.8 °C -11.2 °C 1018.5 hPa WNW 3.7 km/h 14.8 km/h 61 % 0 mm
00:09 -4.9 °C -11.3 °C 1018.5 hPa WNW 7.6 km/h 20.4 km/h 61 % 0 mm
00:14 -4.9 °C -11.1 °C 1018.8 hPa WNW 12.1 km/h 17.7 km/h 62 % 0 mm
00:19 -5 °C -11.4 °C 1018.8 hPa WNW 11.3 km/h 22.2 km/h 61 % 0 mm
00:24 -5.1 °C -11.4 °C 1018.5 hPa WSW 10 km/h 16.1 km/h 61 % 0 mm
00:29 -5.1 °C -11.2 °C 1018.5 hPa WNW 11.6 km/h 20.4 km/h 62 % 0 mm
00:34 -5.1 °C -11.2 °C 1018.5 hPa WNW 5 km/h 14.8 km/h 62 % 0 mm
00:39 -5.1 °C -11.3 °C 1018.5 hPa NW 8 km/h 16.7 km/h 62 % 0 mm
00:45 -5.2 °C -11.3 °C 1018.5 hPa NNW 7.6 km/h 13 km/h 62 % 0 mm
00:50 -5.2 °C -11.4 °C 1018.5 hPa West 7.6 km/h 11.1 km/h 62 % 0 mm
00:55 -5.3 °C -11.4 °C 1018.8 hPa WSW 7.2 km/h 18.5 km/h 62 % 0 mm
01:00 -5.3 °C -11.2 °C 1018.8 hPa West 6 km/h 16.7 km/h 63 % 0 mm
01:02 -5.3 °C -11.5 °C 1018.8 hPa NW 8.4 km/h 17.7 km/h 62 % 0 mm
01:07 -5.3 °C -11.5 °C 1019.2 hPa NW 9.5 km/h 16.7 km/h 62 % 0 mm
01:12 -5.4 °C -11.6 °C 1019.2 hPa WNW 7.2 km/h 14.8 km/h 62 % 0 mm
01:17 -5.4 °C -11.6 °C 1019.2 hPa West 8 km/h 16.7 km/h 62 % 0 mm
01:22 -5.4 °C -11.4 °C 1019.2 hPa West 9.3 km/h 18.5 km/h 63 % 0 mm
01:27 -5.4 °C -11.3 °C 1019.2 hPa WNW 8.4 km/h 18.5 km/h 63 % 0 mm
01:32 -5.4 °C -11.3 °C 1019.2 hPa WNW 1.6 km/h 13 km/h 63 % 0 mm
01:37 -5.4 °C -11.1 °C 1019.2 hPa WNW 7.2 km/h 13 km/h 64 % 0 mm
01:41 -5.4 °C -11.1 °C 1019.5 hPa West 6.6 km/h 13 km/h 64 % 0 mm
01:46 -5.4 °C -11.1 °C 1019.5 hPa WNW 3.5 km/h 7.4 km/h 64 % 0 mm
01:51 -5.4 °C -11.2 °C 1019.2 hPa West 6.9 km/h 13 km/h 64 % 0 mm
01:56 -5.4 °C -11 °C 1019.5 hPa WNW 7.2 km/h 13 km/h 65 % 0 mm
02:01 -5.4 °C -10.9 °C 1019.2 hPa West 5.5 km/h 11.1 km/h 65 % 0 mm
02:06 -5.4 °C -11 °C 1019.5 hPa West 6.1 km/h 8 km/h 65 % 0 mm
02:12 -5.4 °C -10.7 °C 1019.5 hPa WNW 0.3 km/h 5.6 km/h 66 % 0 mm
02:17 -5.4 °C -10.7 °C 1019.2 hPa West 4.2 km/h 11.1 km/h 66 % 0 mm
02:22 -5.4 °C -10.8 °C 1019.2 hPa West 3.1 km/h 11.1 km/h 66 % 0 mm
02:27 -5.4 °C -10.8 °C 1019.5 hPa NW 1 km/h 5.6 km/h 66 % 0 mm
02:32 -5.4 °C -10.6 °C 1019.5 hPa West 3.5 km/h 9.3 km/h 67 % 0 mm
02:37 -5.4 °C -10.6 °C 1019.5 hPa WNW 3.2 km/h 9.3 km/h 67 % 0 mm
02:42 -5.4 °C -10.6 °C 1019.5 hPa WNW 8 km/h 13 km/h 67 % 0 mm
02:48 -5.4 °C -10.6 °C 1019.2 hPa WNW 7.7 km/h 11.3 km/h 67 % 0 mm
02:53 -5.4 °C -10.6 °C 1019.5 hPa West 2.1 km/h 13 km/h 67 % 0 mm
02:58 -5.4 °C -10.6 °C 1019.5 hPa NNW 5.5 km/h 11.3 km/h 67 % 0 mm
03:03 -5.4 °C -10.6 °C 1019.5 hPa West 7.4 km/h 14.8 km/h 67 % 0 mm
03:08 -5.4 °C -10.6 °C 1019.5 hPa WNW 6.6 km/h 13 km/h 67 % 0 mm
03:13 -5.3 °C -10.3 °C 1019.5 hPa WNW 2.6 km/h 7.4 km/h 68 % 0 mm
03:18 -5.4 °C -10.6 °C 1019.5 hPa West 5 km/h 5.6 km/h 67 % 0 mm
03:23 -5.4 °C -10.6 °C 1019.5 hPa WSW 5.1 km/h 13 km/h 67 % 0 mm
03:28 -5.4 °C -10.4 °C 1019.2 hPa WNW 5.1 km/h 9.3 km/h 68 % 0 mm
03:33 -5.4 °C -10.4 °C 1019.5 hPa WNW 1.9 km/h 9.3 km/h 68 % 0 mm
03:38 -5.4 °C -10.2 °C 1019.2 hPa WNW 2.3 km/h 5.6 km/h 69 % 0 mm
03:43 -5.4 °C -10.2 °C 1019.2 hPa WNW 3.2 km/h 9.3 km/h 69 % 0 mm
03:49 -5.4 °C -10.2 °C 1019.2 hPa West 4.8 km/h 7.4 km/h 69 % 0 mm
03:54 -5.4 °C -10.2 °C 1019.2 hPa West 6.1 km/h 6.4 km/h 69 % 0 mm
03:59 -5.4 °C -10.1 °C 1018.8 hPa NW 1.9 km/h 7.4 km/h 70 % 0 mm
04:04 -5.4 °C -10.1 °C 1019.2 hPa NW 3.1 km/h 8 km/h 70 % 0 mm
04:09 -5.4 °C -10.1 °C 1019.2 hPa NW 3.2 km/h 5.6 km/h 70 % 0 mm
04:10 -5.4 °C -10.1 °C 1019.2 hPa NW 3.7 km/h 4.8 km/h 70 % 0 mm
04:15 -5.4 °C -10.1 °C 1019.2 hPa NW 1.8 km/h 4.8 km/h 70 % 0 mm
04:20 -5.4 °C -9.9 °C 1019.2 hPa WNW 4 km/h 8 km/h 71 % 0 mm
04:25 -5.4 °C -9.9 °C 1019.2 hPa WNW 0.2 km/h 5.6 km/h 71 % 0 mm
04:31 -5.4 °C -9.9 °C 1019.2 hPa WNW 3.2 km/h 11.3 km/h 71 % 0 mm
04:36 -5.4 °C -9.9 °C 1019.2 hPa WNW 1.6 km/h 11.3 km/h 71 % 0 mm
04:40 -5.4 °C -9.9 °C 1019.2 hPa WNW 2.3 km/h 3.7 km/h 71 % 0 mm
04:45 -5.5 °C -9.9 °C 1019.2 hPa WSW 5.8 km/h 13 km/h 71 % 0 mm
04:51 -5.6 °C -10 °C 1019.2 hPa West 4.8 km/h 9.7 km/h 71 % 0 mm
04:56 -5.6 °C -9.8 °C 1019.2 hPa WSW 3.2 km/h 8 km/h 72 % 0 mm
05:01 -5.6 °C -9.8 °C 1019.2 hPa Calm     72 % 0 mm
05:06 -5.7 °C -9.9 °C 1019.2 hPa West 1.6 km/h 4.8 km/h 72 % 0 mm
05:11 -5.7 °C -9.9 °C 1019.2 hPa Calm     72 % 0 mm
05:16 -5.8 °C -10 °C 1019.2 hPa WNW 0.8 km/h 5.6 km/h 72 % 0 mm
05:21 -5.8 °C -10.1 °C 1018.8 hPa WNW 0.5 km/h 5.6 km/h 72 % 0 mm
05:26 -5.8 °C -9.9 °C 1019.2 hPa WNW 2.1 km/h 3.7 km/h 73 % 0 mm
05:31 -5.9 °C -9.9 °C 1019.2 hPa Calm     73 % 0 mm
05:37 -5.9 °C -9.9 °C 1019.2 hPa Calm     73 % 0 mm
05:42 -5.9 °C -10 °C 1019.2 hPa Calm     73 % 0 mm
05:47 -6 °C -10.1 °C 1019.2 hPa Calm     73 % 0 mm
05:52 -6.1 °C -10.1 °C 1019.2 hPa Calm     73 % 0 mm
05:57 -6.2 °C -10.2 °C 1018.8 hPa Calm     73 % 0 mm
06:02 -6.2 °C -10.3 °C 1019.2 hPa Calm     73 % 0 mm
06:07 -6.3 °C -10.2 °C 1019.2 hPa Calm     74 % 0 mm
06:12 -6.4 °C -10.3 °C 1019.2 hPa Calm     74 % 0 mm
06:17 -6.5 °C -10.4 °C 1019.2 hPa Calm     74 % 0 mm
06:22 -6.6 °C -10.5 °C 1019.2 hPa Calm     74 % 0 mm
06:27 -6.7 °C -10.4 °C 1019.5 hPa WNW 1.6 km/h 3.7 km/h 75 % 0 mm
06:33 -6.8 °C -10.5 °C 1019.5 hPa WNW 1.8 km/h 3.2 km/h 75 % 0 mm
06:38 -6.9 °C -10.4 °C 1019.5 hPa West 3.2 km/h 5.6 km/h 76 % 0 mm
06:43 -7.1 °C -10.4 °C 1019.5 hPa West 0.3 km/h 3.7 km/h 77 % 0 mm
06:48 -7.1 °C -10.4 °C 1019.5 hPa West 0.3 km/h 1.9 km/h 77 % 0 mm
06:53 -7.2 °C -10.4 °C 1019.5 hPa West 1.9 km/h 3.7 km/h 78 % 0 mm
06:58 -7.3 °C -10.4 °C 1019.5 hPa West 1.4 km/h 3.7 km/h 78 % 0 mm
07:03 -7.3 °C -10.3 °C 1019.5 hPa West 1.8 km/h 3.7 km/h 79 % 0 mm
07:08 -7.3 °C -10.3 °C 1019.5 hPa West 3.2 km/h 5.6 km/h 79 % 0 mm
07:13 -7.3 °C -10.3 °C 1019.5 hPa Calm     79 % 0 mm
07:18 -7.3 °C -10.2 °C 1019.5 hPa West 0.3 km/h 1.9 km/h 80 % 0 mm
07:24 -7.3 °C -10.2 °C 1019.5 hPa West 0.8 km/h 1.9 km/h 80 % 0 mm
07:29 -7.2 °C -10.1 °C 1019.5 hPa West 1.9 km/h 3.7 km/h 80 % 0 mm
07:34 -7.1 °C -9.8 °C 1019.5 hPa West 1.9 km/h 3.7 km/h 81 % 0 mm
07:39 -7.1 °C -9.8 °C 1019.5 hPa West 0.6 km/h 3.7 km/h 81 % 0 mm
07:44 -6.9 °C -9.7 °C 1019.5 hPa West 1.1 km/h 1.9 km/h 81 % 0 mm
07:50 -6.8 °C -9.7 °C 1019.5 hPa West 0.8 km/h 3.7 km/h 80 % 0 mm
07:55 -6.7 °C -9.4 °C 1019.5 hPa West 1.3 km/h 3.7 km/h 81 % 0 mm
08:00 -6.6 °C -9.3 °C 1019.5 hPa West 1.3 km/h 3.7 km/h 81 % 0 mm
08:05 -6.4 °C -9.3 °C 1019.5 hPa West 1.1 km/h 3.7 km/h 80 % 0 mm
08:10 -6.3 °C -9.2 °C 1019.5 hPa West 2.1 km/h 3.7 km/h 80 % 0 mm
08:15 -6.2 °C -9.3 °C 1019.5 hPa West 0.6 km/h 3.2 km/h 79 % 0 mm
08:20 -6.1 °C -9 °C 1019.5 hPa West 0.6 km/h 1.9 km/h 80 % 0 mm
08:25 -6 °C -9.1 °C 1019.5 hPa West 0.8 km/h 5.6 km/h 79 % 0 mm
08:30 -5.8 °C -8.9 °C 1019.9 hPa West 2.1 km/h 3.7 km/h 79 % 0 mm
08:35 -5.7 °C -8.8 °C 1019.5 hPa West 1.4 km/h 1.9 km/h 79 % 0 mm
08:40 -5.6 °C -8.6 °C 1019.9 hPa West 1.1 km/h 3.7 km/h 79 % 0 mm
08:45 -5.4 °C -8.4 °C 1019.9 hPa West 1.3 km/h 3.7 km/h 79 % 0 mm
08:50 -5.2 °C -8.4 °C 1019.9 hPa Calm   1.9 km/h 78 % 0 mm
08:55 -5.1 °C -8.4 °C 1019.9 hPa West 1.3 km/h 5.6 km/h 77 % 0 mm
09:00 -4.9 °C -8.3 °C 1019.9 hPa West 1.8 km/h 1.9 km/h 77 % 0 mm
09:06 -4.7 °C -8.3 °C 1020.2 hPa West 1.6 km/h 4.8 km/h 76 % 0 mm
09:11 -4.5 °C -8.1 °C 1019.9 hPa WSW 3.2 km/h 6.4 km/h 76 % 0 mm
09:16 -4.3 °C -8.1 °C 1020.2 hPa SW 1.6 km/h 8 km/h 75 % 0 mm
09:21 -4.1 °C -8.1 °C 1020.2 hPa Calm   6.4 km/h 74 % 0 mm
09:25 -3.9 °C -8 °C 1020.2 hPa SSW 1.6 km/h 6.4 km/h 73 % 0 mm
09:31 -3.7 °C -8.1 °C 1020.2 hPa SSW 1.6 km/h 6.4 km/h 72 % 0 mm
09:35 -3.6 °C -8.1 °C 1020.2 hPa SSW 1.6 km/h 4.8 km/h 71 % 0 mm
09:41 -3.4 °C -8.1 °C 1020.2 hPa SSW 3.2 km/h 9.7 km/h 70 % 0 mm
09:46 -3.3 °C -8.2 °C 1020.2 hPa SSW 1.6 km/h 8 km/h 69 % 0 mm
09:51 -3.2 °C -8.3 °C 1020.2 hPa SSW 1.6 km/h 8 km/h 68 % 0 mm
09:56 -3.1 °C -8.2 °C 1019.9 hPa SSW 1.1 km/h 1.9 km/h 68 % 0 mm
10:01 -3 °C -8.1 °C 1019.9 hPa Calm   1.9 km/h 68 % 0 mm
10:06 -2.8 °C -8.1 °C 1019.9 hPa Calm   1.9 km/h 67 % 0 mm
10:11 -2.8 °C -8.3 °C 1019.5 hPa Calm     66 % 0 mm
10:16 -2.7 °C -8.3 °C 1019.5 hPa Calm     65 % 0 mm
10:21 -2.6 °C -8.2 °C 1019.5 hPa WSW 0.6 km/h 3.7 km/h 65 % 0 mm
10:26 -2.4 °C -8.3 °C 1019.5 hPa Calm     64 % 0 mm
10:31 -2.3 °C -8.2 °C 1019.5 hPa WSW 0.5 km/h 1.6 km/h 64 % 0 mm
10:36 -2.3 °C -8.2 °C 1019.5 hPa SW 0.8 km/h 3.7 km/h 64 % 0 mm
10:41 -2.2 °C -8.3 °C 1019.2 hPa SW 2.3 km/h 3.7 km/h 63 % 0 mm
10:46 -2.1 °C -8.2 °C 1019.2 hPa Calm     63 % 0 mm
10:51 -1.9 °C -7.7 °C 1019.2 hPa Calm     65 % 0 mm
10:56 -1.8 °C -7.7 °C 1018.8 hPa South 1.4 km/h 5.6 km/h 64 % 0 mm
11:00 -1.8 °C -7.9 °C 1018.8 hPa Calm     63 % 0 mm
11:05 -1.7 °C -7.8 °C 1018.5 hPa Calm     63 % 0 mm
11:10 -1.6 °C -7.7 °C 1018.2 hPa Calm     63 % 0 mm
11:15 -1.4 °C -7.6 °C 1018.2 hPa South 0.3 km/h 5.6 km/h 63 % 0 mm
11:20 -1.3 °C -7.3 °C 1018.2 hPa NE 1 km/h 5.6 km/h 64 % 0 mm
11:25 -1.3 °C -7 °C 1018.2 hPa ENE 0.8 km/h 3.7 km/h 65 % 0 mm
11:30 -1.2 °C -6.8 °C 1017.8 hPa ESE 2.9 km/h 5.6 km/h 66 % 0 mm
11:35 -1.2 °C -6.9 °C 1017.5 hPa Calm   3.7 km/h 65 % 0 mm
11:40 -1.1 °C -6.8 °C 1017.5 hPa South 1.9 km/h 3.7 km/h 65 % 0 mm
11:45 -1.1 °C -6.8 °C 1017.2 hPa SE 0.8 km/h 3.7 km/h 65 % 0 mm
11:50 -1.1 °C -6.8 °C 1017.2 hPa Calm   3.7 km/h 65 % 0 mm
11:56 -1 °C -6.8 °C 1017.2 hPa Calm   1.6 km/h 65 % 0 mm
12:01 -1.1 °C -6.8 °C 1016.8 hPa Calm   1.9 km/h 65 % 0 mm
12:06 -1 °C -6.6 °C 1017.2 hPa Calm   1.9 km/h 66 % 0 mm
12:11 -0.9 °C -6.5 °C 1016.8 hPa Calm     66 % 0 mm
12:16 -0.9 °C -6.5 °C 1016.8 hPa Calm     66 % 0 mm
12:21 -0.9 °C -6.4 °C 1016.8 hPa ESE 1.4 km/h 3.7 km/h 66 % 0 mm
12:26 -0.8 °C -6.6 °C 1016.5 hPa Calm     65 % 0 mm
12:31 -0.8 °C -6.6 °C 1016.5 hPa Calm     65 % 0 mm
12:37 -0.8 °C -6.6 °C 1016.5 hPa North 1.8 km/h 3.7 km/h 65 % 0 mm
12:42 -0.8 °C -6.8 °C 1016.1 hPa Calm   1.9 km/h 64 % 0 mm
12:47 -0.8 °C -6.6 °C 1016.1 hPa North 1 km/h 1.9 km/h 65 % 0 mm
12:52 -0.8 °C -6.6 °C 1016.1 hPa North 0.5 km/h 3.7 km/h 65 % 0 mm
12:57 -0.8 °C -6.6 °C 1016.1 hPa North 0.5 km/h 3.7 km/h 65 % 0 mm
13:02 -0.7 °C -6.3 °C 1016.1 hPa Calm     66 % 0 mm
13:07 -0.7 °C -6.4 °C 1015.8 hPa Calm     65 % 0 mm
13:13 -0.6 °C -6.2 °C 1015.8 hPa Calm     66 % 0 mm
13:18 -0.6 °C -6.2 °C 1015.5 hPa North 2.3 km/h 3.7 km/h 66 % 0 mm
13:23 -0.7 °C -6.4 °C 1015.5 hPa Calm   1.9 km/h 65 % 0 mm
13:28 -0.7 °C -6.2 °C 1015.5 hPa North 0.2 km/h 3.7 km/h 66 % 0 mm
13:33 -0.7 °C -5.8 °C 1015.1 hPa Calm     68 % 0 mm
13:38 -0.7 °C -5.8 °C 1015.1 hPa Calm     68 % 0 mm
13:43 -0.7 °C -5.9 °C 1015.1 hPa Calm     68 % 0 mm
13:49 -0.7 °C -5.8 °C 1015.1 hPa Calm     68 % 0 mm
13:54 -0.7 °C -5.8 °C 1014.8 hPa Calm     68 % 0 mm
13:59 -0.7 °C -5.8 °C 1014.8 hPa Calm   3.7 km/h 68 % 0 mm
14:04 -0.7 °C -5.8 °C 1014.8 hPa NNW 0.2 km/h 1.9 km/h 68 % 0 mm
14:09 -0.7 °C -6.1 °C 1014.8 hPa Calm     67 % 0 mm
14:14 -0.7 °C -6.1 °C 1014.4 hPa Calm     67 % 0 mm
14:19 -0.8 °C -6.2 °C 1014.1 hPa NNW 0.5 km/h 1.9 km/h 67 % 0 mm
14:23 -0.8 °C -6.2 °C 1006.7 hPa Calm     67 % 0 mm
14:28 -0.9 °C -6.1 °C 1014.1 hPa Calm     68 % 0 mm
14:33 -0.9 °C -5.9 °C 1014.1 hPa NNW 0.3 km/h 1.6 km/h 69 % 0 mm
14:38 -0.9 °C -5.6 °C 1014.1 hPa ENE 3.5 km/h 6.4 km/h 71 % 0 mm
14:44 -1.1 °C -5.3 °C 1013.8 hPa NE 0.8 km/h 5.6 km/h 73 % 0 mm
14:49 -1.1 °C -5.1 °C 1013.8 hPa NE 0.2 km/h 1.9 km/h 74 % 0 mm
14:54 -1.1 °C -5 °C 1013.8 hPa Calm   3.7 km/h 75 % 0 mm
14:59 -1.1 °C -4.8 °C 1013.8 hPa NE 1 km/h 3.7 km/h 76 % 0 mm
15:04 -1.2 °C -4.7 °C 1013.4 hPa Calm     77 % 0 mm
15:09 -1.2 °C -4.6 °C 1013.4 hPa Calm     78 % 0 mm
15:14 -1.3 °C -4.6 °C 1013.4 hPa Calm     78 % 0 mm
15:19 -1.3 °C -4.5 °C 1013.4 hPa Calm     79 % 0 mm
15:24 -1.4 °C -4.4 °C 1013.4 hPa Calm     80 % 0 mm
15:29 -1.4 °C -4.4 °C 1013.4 hPa Calm     80 % 0 mm
15:34 -1.5 °C -4.2 °C 1013.1 hPa Calm     82 % 0 mm
15:39 -1.6 °C -4.1 °C 1013.1 hPa Calm     83 % 0 mm
15:44 -1.6 °C -3.9 °C 1013.1 hPa Calm     84 % 0 mm
15:49 -1.7 °C -4 °C 1013.1 hPa NE 1.6 km/h 3.7 km/h 84 % 0 mm
15:55 -1.7 °C -3.9 °C 1012.8 hPa NNE 0.2 km/h   85 % 0 mm
16:00 -1.8 °C -3.9 °C 1012.8 hPa NNE 0.8 km/h 3.7 km/h 85 % 0 mm
16:05 -1.8 °C -3.9 °C 1012.8 hPa NNW 2.4 km/h 5.6 km/h 86 % 0 mm
16:15 -1.9 °C -4 °C 1012.4 hPa NNW 0.3 km/h 5.6 km/h 86 % 0 mm
16:20 -1.9 °C -4 °C 1012.4 hPa Calm     86 % 0 mm
16:25 -2 °C -4.1 °C 1012.8 hPa Calm     86 % 0 mm
16:31 -2.1 °C -4.1 °C 1012.8 hPa Calm   4.8 km/h 86 % 0 mm
16:36 -2.1 °C -3.9 °C 1012.8 hPa Calm   1.9 km/h 87 % 0 mm
16:41 -2.1 °C -3.9 °C 1012.8 hPa NW 1.6 km/h 4.8 km/h 87 % 0 mm
16:46 -2.1 °C -4 °C 1013.1 hPa Calm   3.2 km/h 87 % 0 mm
16:51 -2.1 °C -4 °C 1013.1 hPa WNW 3.2 km/h 4.8 km/h 87 % 0 mm
16:56 -2.2 °C -3.9 °C 1013.1 hPa Calm   1.9 km/h 88 % 0.25 mm
17:01 -2.2 °C -3.9 °C 1013.1 hPa West 5.1 km/h 8 km/h 88 % 0.51 mm
17:06 -2.2 °C -3.9 °C 1013.1 hPa WSW 1 km/h 8 km/h 88 % 0.51 mm
17:11 -2.2 °C -3.7 °C 1013.1 hPa West 2.6 km/h 5.6 km/h 89 % 0.76 mm
17:12 -2.2 °C -3.7 °C 1013.1 hPa West 0.5 km/h 5.6 km/h 89 % 0.76 mm
17:18 -2.2 °C -3.8 °C 1013.1 hPa West 1.8 km/h 4.8 km/h 89 % 1.02 mm
17:23 -2.3 °C -3.8 °C 1013.1 hPa West 2.6 km/h 5.6 km/h 89 % 1.02 mm
17:28 -2.3 °C -3.9 °C 1013.1 hPa West 1.9 km/h 5.6 km/h 89 % 1.27 mm
17:32 -2.3 °C -3.9 °C 1005.6 hPa West 1.9 km/h 5.6 km/h 89 % 1.27 mm
17:37 -2.4 °C -3.9 °C 1013.1 hPa West 0.5 km/h 3.2 km/h 89 % 1.02 mm
17:40 -2.4 °C -4 °C 1005.6 hPa West 1.3 km/h 3.7 km/h 89 % 1.02 mm
17:45 -2.4 °C -4 °C 1013.1 hPa SW 2.6 km/h 5.6 km/h 89 % 1.27 mm
17:46 -2.4 °C -4 °C 1005.6 hPa SW 0.5 km/h 5.6 km/h 89 % 1.27 mm
17:51 -2.5 °C -3.9 °C 1013.1 hPa SW 1.1 km/h 4.8 km/h 90 % 1.27 mm
17:56 -2.6 °C -4.1 °C 1013.1 hPa WSW 0.2 km/h 1.9 km/h 89 % 1.02 mm
17:59 -2.6 °C -3.9 °C 1005.6 hPa SW 2.7 km/h 5.6 km/h 90 % 1.02 mm
18:04 -2.6 °C -4 °C 1013.1 hPa Calm     90 % 1.27 mm
18:09 -2.7 °C -4.1 °C 1005.3 hPa Calm     90 % 1.02 mm
18:14 -2.7 °C -4.1 °C 1012.8 hPa SW 3.1 km/h 5.6 km/h 90 % 1.02 mm
18:15 -2.7 °C -4.1 °C 1013.1 hPa SW 2.7 km/h 5.6 km/h 90 % 1.02 mm
18:19 -2.7 °C -4.1 °C 1012.8 hPa WSW 2.6 km/h 5.6 km/h 90 % 0.76 mm
18:24 -2.7 °C -4.1 °C 1012.8 hPa WSW 0.8 km/h 3.2 km/h 90 % 0.76 mm
18:28 -2.8 °C -4.2 °C 1013.1 hPa WSW 1.6 km/h 3.7 km/h 90 % 0.51 mm
18:33 -2.8 °C -4.2 °C 1013.1 hPa Calm   1.9 km/h 90 % 0.51 mm
18:34 -2.8 °C -4.2 °C 1012.8 hPa WSW 2.6 km/h 4.8 km/h 90 % 0.51 mm
18:35 -2.8 °C -4.2 °C 1012.8 hPa WSW 2.3 km/h 5.6 km/h 90 % 0.51 mm
18:40 -2.8 °C -4.2 °C 1012.8 hPa WSW 0.5 km/h 1.9 km/h 90 % 0.76 mm
18:45 -2.8 °C -4.2 °C 1012.8 hPa WSW 1 km/h 5.6 km/h 90 % 0.51 mm
18:46 -2.8 °C -4.2 °C 1012.8 hPa WSW 0.8 km/h 3.7 km/h 90 % 0.51 mm
18:52 -2.9 °C -4.3 °C 1012.8 hPa WSW 0.3 km/h 3.7 km/h 90 % 0.51 mm
18:54 -2.9 °C -4.3 °C 1012.8 hPa WSW 0.3 km/h 1.9 km/h 90 % 0.51 mm
18:59 -2.9 °C -4.3 °C 1012.4 hPa Calm   1.9 km/h 90 % 0.51 mm
19:00 -2.9 °C -4.3 °C 1012.4 hPa Calm   1.9 km/h 90 % 0.25 mm
19:05 -2.9 °C -4.3 °C 1012.4 hPa WSW 1.1 km/h 3.7 km/h 90 % 0.25 mm
19:08 -2.9 °C -4.3 °C 1012.8 hPa SW 2.6 km/h 4.8 km/h 90 % 0.25 mm
19:13 -3 °C -4.4 °C 1012.8 hPa Calm   1.9 km/h 90 % 0.25 mm
19:18 -2.9 °C -4.2 °C 1012.8 hPa WSW 2.1 km/h 5.6 km/h 91 % 0.25 mm
19:20 -3 °C -4.3 °C 1012.8 hPa WSW 0.5 km/h 1.9 km/h 91 % 0.25 mm
19:25 -3 °C -4.3 °C 1012.8 hPa Calm   1.6 km/h 91 % 0.25 mm
19:27 -3 °C -4.3 °C 1012.8 hPa SW 0.2 km/h 1.9 km/h 91 % 0.25 mm
19:31 -3 °C -4.3 °C 1012.4 hPa Calm     91 % 0.51 mm
19:32 -2.9 °C -4.2 °C 1012.4 hPa Calm     91 % 0.51 mm
19:37 -2.9 °C -4.2 °C 1012.8 hPa SW 0.8 km/h 3.7 km/h 91 % 0.25 mm
19:39 -2.9 °C -4.2 °C 1012.8 hPa Calm   1.9 km/h 91 % 0.25 mm
19:43 -2.9 °C -4.2 °C 1012.8 hPa Calm   5.6 km/h 91 % 0.25 mm
19:49 -2.9 °C -4.2 °C 1012.4 hPa Calm   3.7 km/h 91 % 0.25 mm
19:53 -2.9 °C -4.2 °C 1012.8 hPa SW 1 km/h 3.7 km/h 91 % 0.25 mm
19:58 -2.9 °C -4.2 °C 1012.4 hPa Calm     91 % 0.25 mm
20:00 -2.9 °C -4.2 °C 1012.4 hPa Calm     91 % 0.25 mm
20:01 -2.9 °C -4.2 °C 1012.4 hPa West 0.3 km/h 1.9 km/h 91 % 0.25 mm
20:06 -2.9 °C -4.2 °C 1012.4 hPa Calm   1.9 km/h 91 % 0.25 mm
20:10 -2.9 °C -4.2 °C 1012.4 hPa SW 1 km/h 5.6 km/h 91 % 0.25 mm
20:15 -2.9 °C -4.2 °C 1012.1 hPa West 0.3 km/h 3.7 km/h 91 % 0.25 mm
20:16 -2.9 °C -4.1 °C 1012.1 hPa West 0.3 km/h 1.9 km/h 92 % 0.25 mm
20:21 -2.9 °C -4.1 °C 1012.4 hPa SW 1.9 km/h 6.4 km/h 92 % 0.25 mm
20:25 -2.9 °C -4.1 °C 1012.4 hPa Calm     92 % 0.25 mm
20:30 -2.9 °C -4.1 °C 1012.4 hPa West 0.2 km/h 1.9 km/h 92 % 0.51 mm
20:31 -2.9 °C -4.1 °C 1012.4 hPa West 0.8 km/h 3.7 km/h 92 % 0.25 mm
20:36 -2.9 °C -4.1 °C 1012.1 hPa West 0.8 km/h 5.6 km/h 92 % 0.25 mm
20:37 -2.9 °C -4.1 °C 1012.1 hPa West 0.8 km/h 3.7 km/h 92 % 0.25 mm
20:39 -2.9 °C -4.1 °C 1012.4 hPa SW 2.9 km/h 6.4 km/h 92 % 0.25 mm
20:45 -2.9 °C -4 °C 1012.4 hPa SW 3.2 km/h 6.4 km/h 92 % 0.25 mm
20:50 -2.9 °C -4 °C 1012.4 hPa SW 4.5 km/h 7.4 km/h 92 % 0.25 mm
20:55 -2.9 °C -4 °C 1012.4 hPa SW 2.1 km/h 5.6 km/h 92 % 0.25 mm
20:56 -2.9 °C -4 °C 1012.4 hPa SW 1.1 km/h 5.6 km/h 92 % 0.25 mm
21:02 -2.8 °C -3.9 °C 1012.4 hPa SW 4.3 km/h 8 km/h 92 % 0.25 mm
21:03 -2.8 °C -3.9 °C 1012.4 hPa WSW 4.3 km/h 11.1 km/h 92 % 0.25 mm
21:08 -2.8 °C -3.9 °C 1012.1 hPa West 2.1 km/h 5.6 km/h 92 % 0.25 mm
21:13 -2.9 °C -4 °C 1012.4 hPa WSW 4.2 km/h 9.7 km/h 92 % 0.25 mm
21:14 -2.8 °C -3.9 °C 1012.4 hPa WSW 4.3 km/h 9.3 km/h 92 % 0.25 mm
21:20 -2.8 °C -3.9 °C 1012.1 hPa SW 5.3 km/h 8 km/h 92 % 0.25 mm
21:25 -2.9 °C -4 °C 1012.1 hPa WSW 5.1 km/h 9.3 km/h 92 % 0.25 mm
21:28 -2.8 °C -3.9 °C 1012.1 hPa WSW 4 km/h 7.4 km/h 92 % 0.25 mm
21:33 -2.8 °C -3.9 °C 1012.4 hPa WSW 3.4 km/h 5.6 km/h 92 % 0 mm
21:34 -2.9 °C -4 °C 1012.4 hPa West 1 km/h 7.4 km/h 92 % 0 mm
21:39 -2.9 °C -4 °C 1012.1 hPa SW 3.1 km/h 9.3 km/h 92 % 0 mm
21:41 -2.9 °C -4 °C 1012.4 hPa West 3.2 km/h 7.4 km/h 92 % 0 mm
21:46 -2.9 °C -4.2 °C 1012.1 hPa WSW 5.1 km/h 5.6 km/h 91 % 0 mm
21:49 -2.9 °C -4.2 °C 1012.1 hPa SSW 4.3 km/h 11.1 km/h 91 % 0 mm
21:54 -2.9 °C -4.2 °C 1012.4 hPa SW 5.3 km/h 9.3 km/h 91 % 0 mm
21:55 -2.9 °C -4.2 °C 1012.1 hPa WNW 4.7 km/h 9.3 km/h 91 % 0 mm
21:56 -3 °C -4.3 °C 1012.4 hPa SW 3.7 km/h 5.6 km/h 91 % 0 mm
22:01 -3 °C -4.3 °C 1012.4 hPa WSW 6.3 km/h 16.7 km/h 91 % 0 mm
22:03 -3 °C -4.3 °C 1012.4 hPa WNW 4 km/h 16.7 km/h 91 % 0 mm
22:05 -3 °C -4.3 °C 1012.4 hPa SW 7.7 km/h 19.3 km/h 91 % 0 mm
22:10 -3.1 °C -4.3 °C 1012.4 hPa WNW 4.8 km/h 9.3 km/h 91 % 0 mm
22:16 -3.1 °C -4.5 °C 1012.4 hPa West 11.4 km/h 18.5 km/h 90 % 0 mm
22:18 -3.1 °C -4.5 °C 1012.4 hPa WSW 7.2 km/h 13 km/h 90 % 0 mm
22:19 -3.2 °C -4.6 °C 1012.4 hPa WNW 5.1 km/h 7.4 km/h 90 % 0 mm
22:24 -3.2 °C -4.7 °C 1012.4 hPa NW 9.8 km/h 14.8 km/h 89 % 0 mm
22:29 -3.3 °C -4.8 °C 1012.4 hPa SW 8.7 km/h 18.5 km/h 89 % 0 mm
22:35 -3.3 °C -5.1 °C 1012.4 hPa West 8.2 km/h 17.7 km/h 88 % 0 mm
22:40 -3.4 °C -5.2 °C 1012.4 hPa WSW 8.9 km/h 14.8 km/h 88 % 0 mm
22:43 -3.4 °C -5.2 °C 1012.4 hPa West 8 km/h 16.1 km/h 88 % 0 mm
22:48 -3.5 °C -5.3 °C 1012.4 hPa SW 8.9 km/h 13 km/h 87 % 0 mm
22:53 -3.6 °C -5.4 °C 1012.4 hPa WNW 10.1 km/h 12.9 km/h 87 % 0 mm
22:57 -3.6 °C -5.4 °C 1012.4 hPa SW 7.6 km/h 14.8 km/h 87 % 0 mm
22:59 -3.6 °C -5.4 °C 1012.4 hPa WSW 8 km/h 14.8 km/h 87 % 0 mm
23:04 -3.6 °C -5.4 °C 1012.4 hPa West 5.1 km/h 13 km/h 87 % 0 mm
23:09 -3.6 °C -5.4 °C 1012.4 hPa WNW 4.8 km/h 11.1 km/h 87 % 0 mm
23:14 -3.7 °C -5.7 °C 1012.4 hPa West 5.8 km/h 14.8 km/h 86 % 0 mm
23:19 -3.7 °C -5.7 °C 1012.4 hPa WNW 9 km/h 16.7 km/h 86 % 0 mm
23:22 -3.7 °C -5.7 °C 1012.4 hPa WSW 5.8 km/h 13 km/h 86 % 0 mm
23:27 -3.7 °C -5.7 °C 1012.4 hPa West 6.3 km/h 11.3 km/h 86 % 0 mm
23:28 -3.7 °C -5.7 °C 1012.4 hPa West 7.7 km/h 13 km/h 86 % 0 mm
23:33 -3.7 °C -5.7 °C 1012.4 hPa WNW 1.9 km/h 11.1 km/h 86 % 0 mm
23:35 -3.7 °C -5.7 °C 1012.4 hPa West 4.8 km/h 9.7 km/h 86 % 0 mm
23:37 -3.7 °C -5.7 °C 1012.4 hPa West 2.1 km/h 5.6 km/h 86 % 0 mm
23:42 -3.8 °C -5.8 °C 1012.4 hPa WNW 1.9 km/h 5.6 km/h 86 % 0 mm
23:43 -3.7 °C -5.7 °C 1012.4 hPa WNW 1.4 km/h 5.6 km/h 86 % 0 mm
23:45 -3.7 °C -5.7 °C 1012.1 hPa SW 3.2 km/h 9.3 km/h 86 % 0 mm
23:48 -3.8 °C -5.6 °C 1012.1 hPa West 9.2 km/h 14.8 km/h 87 % 0 mm
23:52 -3.7 °C -5.6 °C 1012.1 hPa SW 3.2 km/h 6.4 km/h 87 % 0 mm
23:56 -3.8 °C -5.6 °C 1012.1 hPa SW 1.4 km/h 3.7 km/h 87 % 0 mm
Crab Meadow Weather
Compliments of Weather Underground - 3.25 mb

Script developed by  Jim McMurry - jmcmurry@mwt.net Adapted for the template by  Wim van der Kuil - Leuven-Template.eu

Weather Terms: Freeze Warning - Widespread temperatures at or below 32°F during the growing season. A freeze may occur with or without frost. A hard freeze occurs with temperatures below 28°F. Growing season is based on the average date of first and last freeze at O'Hare. It begins April 17 and ends October 27.